Location: Stockholm
(59.3333°N, 18.0500°E)
Time: 02:34:07
(UTC+02:00)

ISS - Pass Details

Date: 17 May 2021
Orbit: 417 x 422 km, 51.6° (Epoch: 16 June)

Event Time Altitude Azimuth Distance (km) Brightness Sun altitude
Rises 02:05:15 0° 263° (W) 2,373 -0.2 -9.6°
Reaches altitude 10° 02:08:03 10° 238° (WSW) 1,507 -1.4 -9.5°
Maximum altitude 02:09:58 14° 203° (SSW) 1,262 -2.0 -9.4°
Drops below altitude 10° 02:11:54 10° 168° (SSE) 1,506 -1.5 -9.3°
Sets 02:14:41 0° 143° (SE) 2,369 -0.3 -9.2°
